Jackson, MI

2:16 AM EDT on August 22, 2017 (GMT -0400)
Jackson County-Reynolds

Weather History for KJXN - February, 2013

Change the Weather History Date:

Sunday, February 24, 2013

  Actual Average Record
Temperature  
Mean Temperature 28 °F 28 °F  
Max Temperature 33 °F 37 °F 67 °F (2017)
Min Temperature 22 °F 20 °F -7 °F (1989)
Degree Days  
Heating Degree Days 37 37  
Month to date heating degree days 1003 940  
Since 1 July heating degree days 4562 4771  
Cooling Degree Days 0 0  
Month to date cooling degree days 0 0  
Year to date cooling degree days 0 0  
Moisture  
Dew Point 22 °F    
Average Humidity 76    
Maximum Humidity 85    
Minimum Humidity 66    
Precipitation  
Precipitation T in 0.05 in 0.92 in (2001)
Month to date precipitation 0.83 1.07  
Year to date precipitation 3.57 2.56  
Sea Level Pressure  
Sea Level Pressure 30.03 in    
Wind  
Wind Speed 6 mph (WSW)    
Max Wind Speed 15 mph    
Max Gust Speed 20 mph    
Visibility 8 miles    
Events Snow    
T = Trace of Precipitation, MM = Missing Value Source: NWS Daily Summary

Daily Weather History Graph

Daily Weather History Graph

Search for Another Location

Airport or City:

Trip Planner

Search our weather history database for the weather conditions in past years. The results will help you decide how hot, cold, wet, or windy it might be!

Date:

Astronomy

Feb. 24, 2013 Rise Set
Actual Time 7:20 AM EST 6:22 PM EST
Civil Twilight 6:52 AM EST 6:50 PM EST
Nautical Twilight 6:19 AM EST 7:22 PM EST
Astronomical Twilight 5:47 AM EST 7:55 PM EST
Moon 5:32 PM EST (2/24) 6:17 AM EST (2/24)
Length of Visible Light 11h 58m
Length of Day
11h 01m
Waxing Gibbous, 99% of the Moon is Illuminated
Feb 24
Waxing Gibbous
Feb 25
Full
Mar 4
Last Quarter
Mar 11
New
Mar 19
First Quarter

Hourly Weather History & Observations

Time (EST) Temp. Windchill Dew Point Humidity Pressure Visibility Wind Dir Wind Speed Gust Speed Precip Events Conditions
12:56 AM 21.9 °F 15.7 °F 17.1 °F 82% 29.92 in 10.0 mi WSW 4.6 mph - N/A   Overcast
1:56 AM 23.0 °F 17.0 °F 18.0 °F 81% 29.94 in 3.0 mi WSW 4.6 mph - 0.00 in Snow Light Snow
2:03 AM 21.2 °F 13.6 °F 17.6 °F 86% 29.90 in 2.5 mi WSW 5.8 mph - 0.00 in Snow Light Snow
2:10 AM 21.2 °F 14.9 °F 17.6 °F 86% 29.90 in 4.0 mi WSW 4.6 mph - 0.00 in Snow Light Snow
2:56 AM 21.9 °F 14.5 °F 17.1 °F 82% 29.95 in 8.0 mi WSW 5.8 mph - 0.00 in   Mostly Cloudy
3:56 AM 23.0 °F 15.8 °F 18.0 °F 81% 29.95 in 7.0 mi WSW 5.8 mph - N/A   Overcast
4:56 AM 24.1 °F 17.0 °F 19.0 °F 81% 29.95 in 7.0 mi WSW 5.8 mph - 0.00 in Snow Light Snow
5:18 AM 24.8 °F 16.9 °F 19.4 °F 80% 29.92 in 2.5 mi WSW 6.9 mph - 0.00 in Snow Light Snow
5:37 AM 23.0 °F 13.1 °F 19.4 °F 86% 29.92 in 4.0 mi WSW 9.2 mph - 0.00 in Snow Light Snow
5:56 AM 24.1 °F 14.4 °F 19.0 °F 81% 29.96 in 6.0 mi SW 9.2 mph - 0.00 in Snow Light Snow
6:56 AM 24.1 °F 16.0 °F 19.0 °F 81% 29.99 in 7.0 mi SW 6.9 mph - 0.00 in   Overcast
7:56 AM 24.1 °F 14.4 °F 19.9 °F 84% 30.00 in 9.0 mi WSW 9.2 mph - N/A   Overcast
8:56 AM 25.0 °F 15.5 °F 19.9 °F 81% 30.02 in 7.0 mi West 9.2 mph - N/A   Overcast
9:19 AM 26.6 °F 17.5 °F 21.2 °F 80% 29.98 in 6.0 mi WSW 9.2 mph - N/A   Haze
9:47 AM 26.6 °F 18.2 °F 21.2 °F 80% 29.99 in 8.0 mi West 8.1 mph - N/A   Overcast
9:56 AM 27.0 °F 16.7 °F 21.0 °F 78% 30.04 in 8.0 mi WSW 11.5 mph - N/A   Overcast
10:56 AM 28.9 °F 21.1 °F 21.9 °F 75% 30.05 in 10.0 mi West 8.1 mph 17.3 mph N/A   Overcast
11:56 AM 32.0 °F 24.2 °F 23.0 °F 69% 30.05 in 10.0 mi WNW 9.2 mph 19.6 mph N/A   Mostly Cloudy
12:13 PM 32.0 °F 23.0 °F 24.8 °F 75% 30.02 in 10.0 mi West 11.5 mph 17.3 mph N/A   Mostly Cloudy
12:56 PM 32.0 °F 24.8 °F 24.1 °F 73% 30.06 in 10.0 mi West 8.1 mph - N/A   Overcast
1:56 PM 32.0 °F 25.6 °F 24.1 °F 73% 30.06 in 9.0 mi WNW 6.9 mph 17.3 mph 0.00 in Snow Light Snow
2:08 PM 32.0 °F 23.6 °F 24.8 °F 75% 30.03 in 9.0 mi West 10.4 mph - 0.00 in   Overcast
2:56 PM 32.0 °F 24.8 °F 25.0 °F 75% 30.07 in 10.0 mi West 8.1 mph - 0.00 in   Overcast
3:56 PM 32.0 °F 24.8 °F 25.0 °F 75% 30.09 in 10.0 mi West 8.1 mph - N/A   Overcast
4:32 PM 32.0 °F 25.6 °F 24.8 °F 75% 30.06 in 10.0 mi West 6.9 mph - N/A   Overcast
4:56 PM 33.1 °F 27.7 °F 25.0 °F 72% 30.10 in 10.0 mi Variable 5.8 mph - N/A   Overcast
5:56 PM 32.0 °F 26.4 °F 25.0 °F 75% 30.12 in 10.0 mi WSW 5.8 mph - N/A   Overcast
6:56 PM 30.9 °F 26.2 °F 24.1 °F 76% 30.13 in 10.0 mi WSW 4.6 mph - N/A   Overcast
7:56 PM 30.9 °F 26.2 °F 24.1 °F 76% 30.15 in 10.0 mi WSW 4.6 mph - N/A   Overcast
8:56 PM 30.0 °F 26.5 °F 24.1 °F 79% 30.16 in 10.0 mi WSW 3.5 mph - N/A   Overcast
9:56 PM 30.0 °F 26.5 °F 24.1 °F 79% 30.17 in 10.0 mi West 3.5 mph - N/A   Overcast
10:56 PM 28.9 °F - 24.1 °F 82% 30.17 in 10.0 mi Calm Calm - N/A   Overcast
11:56 PM 28.9 °F 25.2 °F 24.1 °F 82% 30.17 in 10.0 mi WSW 3.5 mph - N/A   Overcast